{"data":{"norad_id":66537,"epoch":"2026-09-20T08:21:35.140896Z","epoch_age_seconds":102279,"freshness":"FRESH","line1":"1 66537U 25265X   26263.34832339  .00012520  00000+0  46345-3 0  9995","line2":"2 66537  42.9997 258.6274 0002278 286.7159  73.3443 15.27597562 46889","mean_motion":15.27597562,"eccentricity":0.0002278,"inclination_deg":42.9997,"raan_deg":258.6274,"arg_perigee_deg":286.7159,"mean_anomaly_deg":73.3443,"bstar":0.00046345,"rev_number":4688,"period_min":94.265664977541,"perigee_km":481.43354338408,"apogee_km":484.55947581105,"semimajor_km":6861.1335095976,"source":"CELESTRAK","updated_at":"2026-09-21T09:00:35.967724Z"}}